Weather Service Report


560 
ASUS41 KCTP 210810
RWRCTP

REGIONAL WEATHER ROUNDUP
NATIONAL WEATHER SERVICE STATE COLLEGE PA
400 AM EDT SUN SEP 21 2014

Note: "fair" indicates few or no clouds below 12,000 feet with no 
significant weather and/or obstructions to visibility.

* = STATION THAT DOES NOT REPORT PRECIPITATION /E.G. RAIN...SNOW...ETC/
    THUNDER OR FOG.

PAZ002>004-007>009-013>016-020>023-029>032-210900-
WESTERN PENNSYLVANIA
  
CITY           SKY/WX    TMP DP  RH WIND       PRES   REMARKS
ERIE           CLOUDY    69  61  75 S13       29.74F                  
MEADVILLE      PTCLDY    65  61  87 S8        29.81F                  
FRANKLIN*      PTCLDY    64  59  82 S13G18    29.85F                  
NEW CASTLE     NOT AVBL                                               
BEAVER COUNTY  NOT AVBL                                               
BUTLER*        MOCLDY    66  61  82 S7        29.87F                  
PITTSBURGH INT CLOUDY    68  62  81 S9        29.85F                  
PITTSBURGH     MOCLDY    65  59  81 S8        29.87F                  
INDIANA*       MOCLDY    61  59  94 CALM      29.92F                  
LATROBE        CLEAR     63  63 100 SW5       29.90S                  
WASHINGTON CO* MOCLDY    63  61  94 S3        29.89F                  
$$

PAZ004>006-010>012-017>019-024>028-033>037-041-042-045-046-049>053-210900-
CENTRAL PENNSYLVANIA
  
CITY           SKY/WX    TMP DP  RH WIND       PRES   REMARKS
BRADFORD       MOCLDY    64  59  83 S9        29.87F                  
DUBOIS         PTCLDY    62  58  86 S6        29.87F                  
CLEARFIELD     PTCLDY    58  56  93 N5        29.90F                  
JOHNSTOWN      PTCLDY    60  54  80 S6        29.93F                  
ALTOONA        CLEAR     60  56  86 CALM      29.93F                  
STATE COLLEGE  PTCLDY    60  55  85 NW8       29.92F                  
WILLIAMSPORT   PTCLDY    65  58  78 E10       29.89F                  
SELINSGROVE    CLEAR     60  58  92 CALM      29.92F                  
FT INDIANTOWN  MOCLDY    57  57 100 E2        29.93F                  
CAPITAL CITY   CLOUDY    62  60  93 E5        29.92F                  
HARRISBURG     PTCLDY    61  59  93 CALM      29.92F                  
YORK           FOG       52  51  97 CALM      29.93F VSB 1/2          
$$

PAZ038>040-043-044-047-048-054-055-060>062-067>071-210900-
EASTERN PENNSYLVANIA
  
CITY           SKY/WX    TMP DP  RH WIND       PRES   REMARKS
SCRANTON       CLEAR     57  55  93 SE3       29.93F                  
MOUNT POCONO   FOG       58  56  93 CALM      29.98F VSB 1/2          
ALLENTOWN      CLEAR     58  56  93 CALM      29.94F                  
QUAKERTOWN*    CLOUDY    61  59  94 CALM      29.96F                  
READING        PTCLDY    57  55  93 NW3       29.93F                  
LANCASTER      FOG       55  55 100 CALM      29.94F VSB 1/4          
COATESVILLE    FOG       61  61 100 E5        29.96F VSB<1/4          
POTTSTOWN      CLEAR     59  57  93 CALM      29.96F FOG              
BLUE BELL      CLOUDY    66  64  94 CALM      29.95F                  
DOYLESTOWN     CLOUDY    64  63  96 CALM      29.95F                  
WILLOW GROVE   NOT AVBL                                               
NORTH PHILA    CLOUDY    67  61  81 N5        29.96F                  
PHILADELPHIA   MOCLDY    67  63  87 NW8       29.94F                  
$$

Return to Home page


Western Regional Climate Center, wrcc@dri.edu